GFSNW_sfc_thetae_273.txt.gz
Theta_e
308 307 308 307 307 305 304 305 298 314 315 302 303 298 301 301 304 308 306 305 306 305 307 307 306 306 309 313 313 308 312 310 305 305 311 311 311 308 309 303 302 305 304 302
308 308 307 307 307 306 303 301 303 313 312 297 299 304 302 303 303 304 304 303 304 307 305 304 308 309 312 312 311 310 312 307 301 304 308 310 308 310 311 311 311 305 301 304
306 307 307 306 307 305 303 301 296 303 306 305 303 303 303 300 304 304 306 305 306 303 303 308 307 309 311 312 311 318 316 310 306 301 305 309 306 307 309 309 304 305 304 306
305 305 305 306 306 305 303 301 298 302 298 301 302 303 306 301 300 304 306 304 303 302 300 304 305 310 312 312 310 314 315 307 308 308 309 309 308 307 307 307 308 305 307 306
305 305 305 305 307 305 302 298 298 302 300 302 303 300 301 302 302 303 301 302 303 304 302 304 305 309 311 311 313 312 315 308 309 305 308 308 306 308 309 309 309 309 309 308
305 305 305 305 306 304 302 304 305 299 296 298 298 301 302 303 306 306 306 306 305 304 305 307 312 317 318 316 313 313 312 309 307 302 307 306 302 306 308 309 310 309 305 311
304 305 305 305 307 304 300 301 300 296 293 295 295 299 302 303 306 305 306 308 308 310 319 317 311 313 317 318 316 318 313 313 310 304 305 296 307 313 312 310 311 312 312 314
304 305 305 305 306 307 302 301 300 296 291 294 295 299 301 305 307 306 307 308 312 319 316 309 305 307 310 312 314 316 318 314 306 302 302 304 307 311 311 309 309 314 313 313
304 304 304 304 303 305 303 300 303 298 292 293 298 298 301 300 303 304 307 312 315 315 310 306 300 299 304 303 308 316 316 317 309 304 298 297 308 314 316 315 304 315 315 314
304 304 304 304 304 304 304 304 309 299 292 295 297 297 298 304 304 303 307 308 309 315 307 302 301 300 307 301 303 305 308 309 306 303 302 304 313 313 314 303 306 315 314 315
303 304 304 304 304 303 303 302 308 301 294 296 297 299 301 303 304 301 305 306 308 309 305 304 302 302 304 304 307 306 304 303 303 304 301 298 316 314 308 316 319 317 317 318
303 304 303 303 304 303 303 300 307 306 297 297 301 302 304 304 306 302 306 305 310 311 308 309 309 305 308 306 299 311 303 308 305 306 306 319 319 317 322 322 318 318 318 320
302 303 303 304 304 304 303 304 304 302 296 297 297 297 303 305 306 309 300 308 308 312 313 310 310 306 311 303 303 307 312 315 309 309 314 315 318 323 322 320 318 320 322 323
302 303 303 303 304 303 303 302 305 300 297 292 298 307 303 307 308 307 307 307 309 309 310 308 307 306 309 306 309 307 309 313 311 311 314 316 317 319 321 321 323 322 323 323
302 302 303 303 303 303 304 304 304 304 295 291 296 303 305 306 305 305 305 306 305 306 307 306 306 312 309 312 311 309 315 311 306 305 315 314 315 320 321 321 320 321 321 320
301 302 303 302 303 303 302 296 302 304 303 295 291 303 303 305 305 304 304 304 305 305 306 306 308 310 307 303 304 310 313 314 319 315 320 321 324 323 320 320 321 321 321 321
301 301 301 302 302 303 297 295 301 305 307 295 293 295 302 304 304 305 304 305 302 302 304 305 305 307 306 304 300 309 313 316 316 319 319 318 320 318 321 322 322 320 321 320
299 300 302 302 302 302 298 303 303 305 301 300 291 295 298 304 299 299 305 301 301 301 301 304 302 307 307 300 308 311 312 313 315 317 320 319 322 323 323 322 321 319 318 318
299 299 301 302 299 297 303 305 305 305 301 292 294 291 292 303 300 300 301 302 296 302 297 299 302 301 299 304 307 308 310 311 313 316 317 318 318 320 321 320 319 318 318 318
300 299 296 293 300 304 304 300 296 295 297 297 293 299 293 300 298 297 298 299 295 293 296 302 297 297 307 308 310 310 309 310 310 309 311 313 314 316 319 319 320 319 317 318
298 295 293 301 303 300 294 292 291 293 291 295 295 295 295 302 296 296 298 296 296 290 294 294 294 295 302 308 308 309 309 310 310 312 313 314 313 313 315 317 318 318 318 317
298 299 302 303 296 293 289 289 291 290 288 294 292 294 297 300 303 299 299 295 296 288 298 293 290 297 305 306 306 308 308 309 308 310 310 311 311 312 315 316 317 318 319 319
302 297 293 292 292 285 284 283 287 288 293 295 295 293 298 299 302 297 296 289 291 302 292 290 296 305 305 305 306 307 310 309 308 307 307 308 312 311 314 315 317 319 319 319
293 290 283 287 286 288 289 292 293 297 298 295 296 295 295 297 295 292 289 294 295 290 288 290 300 302 304 305 306 306 307 308 308 307 307 306 308 309 313 316 317 317 318 319
290 291 283 287 293 294 297 298 299 300 301 298 296 296 298 294 291 294 291 289 287 290 291 298 299 303 303 303 304 305 306 308 308 310 310 310 311 311 312 314 316 318 319 320
293 292 288 293 292 295 296 299 298 301 300 299 299 293 289 288 290 289 288 287 286 293 299 300 302 303 302 303 304 304 306 307 310 311 313 313 313 313 315 317 318 319 320 319
290 291 295 293 293 294 295 294 298 303 298 292 294 288 287 295 290 288 294 291 295 298 300 302 302 302 303 304 304 304 305 306 308 311 311 314 318 317 318 317 317 319 320 320

GFSNW_sfc_thetae_276.txt.gz
Theta_e
308 308 308 308 307 305 305 305 299 315 316 303 303 298 301 301 303 307 304 306 305 304 305 304 306 306 308 313 313 307 311 311 303 305 311 311 309 307 307 303 303 306 305 303
308 308 307 308 307 306 301 300 302 313 313 296 299 303 303 304 303 303 303 303 306 306 303 302 306 309 314 313 312 311 313 308 301 302 308 310 306 307 309 312 313 306 301 303
306 307 306 307 307 306 302 301 296 303 306 305 300 299 301 302 307 304 304 303 305 304 302 305 303 306 312 313 312 318 319 313 307 301 304 307 305 305 307 310 304 304 304 306
306 305 306 306 307 307 302 301 298 302 297 300 302 303 301 299 302 307 305 303 303 302 300 301 301 306 310 313 313 312 320 310 309 307 308 308 307 306 306 305 307 304 306 307
305 305 306 306 307 307 300 298 299 303 300 301 300 300 300 301 300 304 303 302 303 304 303 303 301 305 308 310 312 311 318 308 310 304 307 307 306 308 308 307 307 307 308 309
305 305 305 306 306 306 301 305 305 300 297 298 296 297 300 301 303 304 306 306 303 302 304 307 308 310 313 313 312 314 315 310 308 302 306 306 302 306 308 309 310 309 305 312
304 305 305 306 307 306 301 301 300 296 292 296 296 297 299 298 300 298 304 308 305 308 312 312 312 309 308 312 315 317 313 313 310 304 306 296 307 313 311 309 311 312 314 315
304 304 305 305 306 307 302 302 299 296 292 296 296 297 298 300 300 300 301 307 311 318 314 308 305 303 304 306 311 314 317 315 305 303 302 305 307 311 310 308 309 314 314 314
304 304 305 305 305 306 304 301 303 297 293 293 298 296 298 295 296 298 303 311 313 314 308 305 299 296 300 299 307 314 314 309 310 305 300 297 308 313 317 317 305 315 316 315
304 304 304 305 305 305 303 301 310 301 293 298 298 295 295 299 298 299 302 304 307 312 304 300 298 299 304 300 303 306 305 304 306 305 301 305 314 314 315 303 306 319 319 318
303 304 304 305 305 305 303 300 308 302 296 298 300 300 296 295 297 294 299 301 306 305 301 300 301 300 304 304 309 309 304 300 305 308 302 298 315 313 305 315 321 318 323 323
302 303 304 304 304 305 304 298 307 309 299 298 303 303 303 300 299 297 301 298 299 311 307 304 306 304 306 306 299 312 304 306 306 309 307 315 318 320 324 326 320 318 322 325
301 302 303 304 304 305 304 300 307 301 297 298 298 297 303 306 304 304 297 301 305 305 309 307 311 306 308 301 304 309 313 313 307 312 315 315 319 319 319 318 320 321 323 325
301 302 303 304 304 305 304 300 302 303 298 291 297 308 304 305 306 304 305 305 309 309 307 304 306 304 308 306 305 307 309 314 309 311 316 318 319 320 321 320 321 322 322 322
302 302 303 304 304 304 304 303 303 305 297 291 294 301 304 306 306 304 306 307 305 303 302 304 304 311 309 309 308 305 312 308 310 308 318 318 314 319 319 320 320 321 320 320
301 302 303 303 303 303 301 296 303 304 304 294 289 304 303 305 304 302 304 304 303 303 302 305 308 312 306 304 301 308 310 313 313 311 317 317 315 323 321 320 320 321 321 321
301 301 302 303 303 302 297 295 299 304 304 295 291 295 302 305 304 302 302 306 303 302 302 304 305 307 307 305 299 308 311 313 312 312 312 316 319 316 320 321 321 320 321 321
300 300 302 302 302 302 297 302 303 304 302 299 292 294 299 304 298 297 305 300 301 302 300 304 302 305 306 300 307 308 311 314 315 315 314 319 321 321 322 321 320 319 318 318
300 299 301 300 299 296 300 305 307 304 300 292 294 291 292 303 299 301 301 303 296 302 297 298 301 302 299 304 307 309 310 312 313 316 317 318 318 319 320 319 319 317 316 318
300 299 294 292 300 304 303 298 297 296 297 297 292 297 294 300 298 296 298 299 295 293 296 301 296 296 306 308 310 310 312 313 314 312 311 313 316 318 318 320 320 319 318 317
297 293 292 302 303 299 295 291 290 292 290 295 295 296 295 301 296 296 300 295 295 290 294 294 294 294 302 308 308 312 311 312 312 313 314 315 315 319 318 317 319 320 318 317
299 297 301 301 295 291 288 288 291 291 288 295 293 294 297 299 304 299 300 295 296 288 298 293 291 298 307 307 308 310 311 311 311 312 312 313 313 314 316 318 318 320 320 320
299 295 292 291 291 285 284 283 287 288 293 295 296 294 297 299 301 298 297 291 291 299 293 290 293 303 307 309 308 308 309 310 310 309 310 312 312 313 313 317 319 320 320 317
291 289 284 287 286 288 289 291 291 297 297 296 296 296 296 300 295 297 290 295 296 289 287 289 300 306 306 307 307 307 306 308 308 307 307 306 307 311 312 316 319 317 318 320
290 291 284 287 291 293 294 295 297 299 301 299 298 298 299 295 292 295 293 290 288 290 290 299 305 306 306 305 306 306 307 308 308 308 307 306 307 308 309 314 319 320 320 318
293 292 289 292 292 293 295 296 297 301 300 300 298 292 291 290 293 290 288 288 287 293 299 301 304 304 304 305 305 306 307 308 309 310 311 311 310 310 313 314 316 318 319 318
291 291 295 293 294 294 295 297 298 304 298 293 295 289 288 294 291 289 291 291 293 298 300 302 303 304 304 306 305 306 307 307 310 312 313 314 316 315 316 315 319 318 322 322

GFSNW_sfc_thetae_279.txt.gz
Theta_e
308 308 308 308 308 305 302 300 294 310 313 298 299 294 298 299 301 304 302 301 299 298 299 299 299 299 304 311 309 303 304 299 295 299 306 307 303 299 298 292 293 296 296 296
307 308 308 308 308 306 298 295 298 308 311 292 294 299 300 302 301 301 300 299 301 301 298 296 301 301 307 308 308 304 304 296 293 297 301 304 300 302 301 299 300 296 294 296
307 307 307 307 307 307 299 295 292 299 304 302 297 295 296 296 303 302 304 302 302 299 297 300 298 299 305 307 307 317 311 301 297 293 297 302 299 302 301 299 293 294 297 300
306 306 306 307 306 307 300 296 294 299 292 297 298 298 298 297 297 302 302 300 301 297 294 296 297 300 302 305 309 309 306 298 303 302 305 305 304 303 302 298 301 296 299 302
305 306 305 306 306 306 296 292 294 297 295 297 296 296 295 296 299 300 299 297 302 301 296 297 296 300 299 300 307 304 307 297 303 301 305 303 301 304 305 303 304 302 304 302
304 305 305 306 306 304 296 300 299 297 295 294 292 293 294 295 297 300 301 300 298 299 301 305 304 303 302 302 302 300 303 300 299 294 302 302 297 302 304 305 306 303 299 306
304 304 305 305 307 305 298 298 297 293 289 292 292 294 296 296 297 296 299 301 298 304 309 308 309 303 302 302 301 302 301 300 300 294 297 291 300 308 309 307 308 309 312 314
304 304 304 305 306 307 300 300 297 293 287 292 292 294 294 296 297 297 299 301 306 309 306 300 297 296 298 302 302 300 308 304 299 293 295 298 303 306 305 303 303 312 311 315
304 304 304 305 306 307 302 300 302 295 289 288 294 291 294 291 294 296 299 304 306 308 304 299 292 290 296 295 297 302 308 308 304 296 293 291 301 312 315 310 301 312 314 313
303 304 304 305 305 306 301 298 305 299 290 293 293 291 291 296 294 292 297 298 299 309 300 295 295 294 301 294 293 294 301 303 299 299 295 299 309 313 314 298 299 315 313 313
302 304 304 304 305 305 303 298 303 299 294 295 297 298 294 294 294 289 296 295 297 300 296 296 298 296 299 297 300 298 300 297 295 297 294 293 314 310 303 307 315 318 318 319
302 302 303 304 304 305 304 297 302 306 296 295 301 300 301 300 298 293 297 297 295 299 290 293 294 298 301 299 293 303 300 303 299 300 299 311 315 311 314 315 317 318 318 319
303 302 303 303 304 304 304 299 301 300 295 294 295 295 301 304 302 302 291 299 301 298 300 292 295 298 302 298 298 302 307 311 303 307 312 312 315 316 318 317 319 319 320 319
301 301 302 303 304 304 304 300 301 300 296 289 292 302 299 303 304 302 300 298 304 303 301 294 294 299 306 303 301 301 307 309 304 308 312 314 315 315 313 318 320 319 320 320
301 302 303 303 304 305 304 302 301 301 295 289 290 297 299 301 302 302 300 298 297 299 297 295 293 305 305 305 304 302 306 305 304 304 311 312 314 315 316 316 318 319 319 318
301 302 303 303 303 303 299 293 300 303 302 293 286 296 297 302 304 302 301 302 300 299 298 298 301 309 305 300 298 305 307 310 308 307 313 316 317 319 320 318 318 318 318 318
301 301 301 302 303 301 294 293 299 303 303 293 288 291 300 302 302 300 299 300 299 299 298 300 301 303 304 301 297 306 308 313 311 313 314 311 314 313 317 320 320 318 319 318
301 300 300 302 302 301 295 299 303 303 297 296 288 290 296 303 296 294 300 297 299 299 297 299 300 301 303 297 304 308 311 312 311 312 313 313 315 319 317 318 317 315 314 315
301 299 299 299 297 294 296 306 307 302 297 287 290 288 288 302 297 299 299 300 293 299 294 294 297 298 295 303 305 306 308 308 310 311 311 312 313 316 316 316 315 313 314 314
299 298 293 290 297 305 303 299 295 295 295 294 288 293 290 297 297 296 296 297 294 290 294 298 293 292 302 307 308 309 309 311 310 311 309 311 314 315 316 316 315 314 315 315
297 292 290 299 303 299 294 288 288 290 288 292 292 292 289 300 293 294 298 294 294 287 292 292 290 290 297 307 309 309 311 311 310 312 315 317 316 315 314 315 316 316 315 314
296 296 300 299 294 290 286 284 289 288 286 292 290 292 294 297 300 295 296 291 293 287 296 291 287 294 304 307 307 310 309 311 309 311 311 312 315 317 316 316 316 315 315 314
298 294 290 287 289 282 282 281 285 286 292 294 294 291 296 297 298 295 294 290 288 297 290 288 290 298 305 305 307 308 309 309 309 309 310 311 312 313 316 314 317 316 315 314
288 288 284 285 284 286 288 289 291 296 296 295 295 294 293 295 292 294 289 293 294 287 285 287 297 301 303 305 306 306 305 307 307 307 307 307 311 310 313 317 317 315 314 315
288 289 282 286 291 293 293 294 292 296 295 297 295 295 295 292 291 292 291 289 286 288 287 294 299 302 303 303 304 304 305 305 305 306 306 305 307 309 308 315 316 315 316 315
291 291 288 292 290 292 294 291 290 296 298 298 296 291 288 289 290 288 287 287 286 290 296 298 300 301 303 303 305 305 307 307 307 310 310 310 309 306 306 308 314 314 315 315
290 290 295 293 293 292 294 295 297 301 296 291 292 288 287 293 289 288 292 289 293 295 298 300 302 301 301 302 305 306 306 308 308 309 310 311 313 313 309 308 311 314 317 316

GFSNW_sfc_thetae_285.txt.gz
Theta_e
309 307 307 308 307 305 296 289 284 300 303 292 289 287 292 298 298 301 299 298 295 293 294 292 292 294 298 303 301 296 296 291 289 293 299 300 296 295 294 288 288 289 288 289
308 307 307 307 307 304 292 286 289 300 301 287 288 293 297 299 298 298 298 296 299 298 294 290 294 296 302 300 299 296 295 290 286 289 292 296 295 297 295 293 291 289 289 291
308 306 306 306 306 305 292 287 285 291 295 294 291 290 292 293 300 298 298 296 298 295 293 293 292 294 300 303 300 311 305 292 291 287 291 294 293 297 296 294 288 290 291 294
306 305 306 306 305 304 293 287 286 290 286 290 290 291 293 292 293 297 298 295 296 294 289 292 292 297 298 302 305 303 296 291 293 295 297 299 297 298 297 293 294 291 296 295
305 305 306 306 305 303 290 286 287 289 288 291 290 291 290 292 294 292 291 293 296 294 290 293 293 295 294 295 298 296 296 289 292 292 297 299 296 298 299 298 296 296 296 295
304 304 305 305 306 300 289 291 291 289 288 288 287 288 289 291 292 294 296 297 294 293 296 298 298 299 299 298 295 293 292 290 289 286 296 297 293 297 298 299 298 299 295 299
305 304 304 304 305 301 292 291 290 286 284 287 288 290 292 290 292 290 295 297 293 299 302 300 299 298 298 300 299 298 292 289 291 287 293 286 297 302 302 301 301 301 302 306
304 304 304 305 305 305 294 293 290 287 284 288 289 290 289 290 291 292 296 295 300 300 297 293 290 287 291 294 298 298 299 290 288 286 288 294 298 302 300 297 298 306 305 308
305 304 304 305 305 306 297 293 294 291 284 285 290 287 288 285 285 288 292 297 298 300 297 293 284 281 290 290 294 298 295 294 291 288 288 286 296 304 309 306 295 306 309 309
305 304 304 304 305 305 299 293 294 295 289 290 289 286 286 289 287 284 288 291 291 296 292 290 287 286 294 287 289 290 289 291 289 288 286 292 301 308 309 296 297 309 311 311
304 304 303 305 305 305 299 295 296 295 291 290 294 294 290 290 288 284 287 286 291 293 289 289 288 288 292 290 293 292 290 288 289 289 286 286 306 307 301 303 306 309 310 312
304 303 303 303 304 304 302 293 296 300 293 290 296 297 297 296 295 289 287 286 290 293 287 289 287 287 288 288 286 298 291 296 293 294 293 301 307 306 308 310 310 311 311 312
303 303 302 302 303 303 301 293 295 294 288 289 288 290 295 297 298 299 287 287 292 291 291 288 289 285 289 284 290 293 298 304 297 296 301 304 307 311 312 314 313 314 315 315
302 303 303 302 302 303 303 297 295 292 290 285 286 296 292 298 296 296 296 293 295 293 291 289 288 286 291 289 291 290 293 297 299 300 304 307 309 310 312 315 316 316 317 316
302 303 302 302 303 304 299 294 295 295 289 286 286 291 293 295 294 294 295 294 292 291 290 291 287 293 291 294 292 291 297 298 298 298 307 307 305 311 314 315 316 317 316 315
301 301 301 302 302 302 294 286 293 296 295 287 282 290 291 292 293 292 292 293 291 289 288 289 291 294 293 289 290 295 297 301 306 307 313 313 312 314 316 316 317 318 318 318
301 301 301 301 302 294 289 286 297 301 295 288 285 284 292 293 291 291 291 291 290 289 287 288 290 292 297 293 288 296 300 303 305 312 312 310 312 311 316 318 319 317 317 316
301 301 300 300 301 297 290 293 302 300 293 293 284 284 288 299 290 289 291 289 291 293 290 290 289 294 295 289 295 299 301 307 310 312 313 313 316 315 316 317 317 314 312 312
301 301 300 294 290 286 289 300 302 297 291 286 287 283 282 299 294 293 292 294 289 292 288 290 290 289 289 295 300 301 305 308 307 312 312 315 314 313 314 315 315 313 312 312
301 293 288 286 288 299 300 294 290 291 292 291 285 286 283 292 293 293 291 292 289 287 288 291 288 288 294 298 303 308 309 308 310 307 306 308 310 312 312 313 316 314 313 312
289 288 283 289 301 292 291 286 286 286 285 287 287 286 284 291 288 289 293 288 288 286 286 287 284 284 292 297 301 308 308 308 309 308 312 314 311 312 313 311 314 314 313 311
289 292 296 295 288 288 284 281 285 285 281 284 283 285 286 288 296 290 294 289 288 283 289 286 282 288 293 298 305 307 307 307 309 312 312 314 312 312 314 314 314 312 312 310
291 290 289 287 285 280 281 278 281 280 284 287 287 283 285 288 294 292 291 287 284 289 284 284 286 293 298 303 305 305 307 309 309 311 311 312 314 315 316 314 314 312 310 309
286 285 279 281 281 281 281 281 282 287 290 289 289 286 286 288 288 291 286 288 288 281 280 282 291 294 297 302 307 305 306 305 309 308 311 310 311 316 316 314 313 311 307 307
286 287 279 282 285 286 288 291 289 290 290 291 289 287 287 286 288 289 287 286 283 284 284 292 294 297 298 302 303 304 304 307 307 309 310 309 310 313 313 313 312 311 309 308
288 287 284 286 286 286 289 289 288 292 292 292 291 288 284 284 285 285 284 283 283 285 293 295 297 299 300 301 303 305 307 306 307 308 308 310 311 312 311 312 312 311 309 308
287 285 287 287 286 285 288 291 292 294 291 285 286 282 282 285 283 284 287 286 287 290 296 297 298 299 300 300 302 303 305 305 304 306 307 308 306 312 311 309 309 310 309 308

GFSNW_sfc_thetae_288.txt.gz
Theta_e
310 308 306 307 307 304 295 287 283 298 300 291 288 286 290 297 297 300 298 296 293 292 292 291 291 292 296 300 298 293 294 290 287 291 294 297 295 293 292 287 287 288 287 288
309 308 306 307 306 302 290 285 286 298 298 286 287 291 295 297 297 296 296 295 296 296 292 288 293 294 300 302 298 294 293 288 285 289 292 295 292 293 293 291 289 288 286 289
308 308 305 306 306 303 292 287 282 289 293 292 289 289 291 292 298 297 297 295 296 294 292 292 291 293 300 302 302 312 302 289 288 286 290 293 292 295 294 292 286 288 290 293
307 306 305 306 305 304 291 287 284 288 285 288 289 290 292 291 291 295 295 294 294 292 288 289 291 296 297 300 303 298 294 288 291 293 295 296 296 296 295 292 293 291 294 293
307 305 305 306 305 301 289 286 286 288 286 288 288 290 289 291 292 290 289 292 295 293 288 291 290 294 292 292 296 293 293 289 289 290 294 294 295 297 298 296 295 294 295 294
305 305 305 305 305 299 289 289 289 288 287 286 286 286 289 291 291 293 296 296 293 292 294 297 296 297 296 294 291 291 291 289 287 284 292 293 289 295 297 296 296 297 293 299
305 305 305 305 305 299 291 289 288 285 282 286 287 290 291 290 290 289 293 296 293 297 300 298 296 294 294 295 295 296 291 288 288 284 289 282 291 301 301 299 299 299 299 302
305 305 304 304 305 304 293 290 289 285 281 285 288 289 288 288 290 290 293 293 299 298 296 290 286 285 287 292 294 295 296 290 286 285 284 289 294 295 299 297 298 301 300 303
305 305 305 305 305 305 295 292 292 288 283 282 289 286 287 284 285 287 291 296 296 298 294 291 283 279 286 285 292 297 296 294 290 285 283 282 293 300 308 303 296 304 305 306
305 305 304 305 305 305 297 292 292 290 284 288 289 284 284 289 288 286 288 292 292 296 290 290 285 285 292 283 286 287 287 287 287 287 284 288 296 301 305 293 296 308 310 308
305 305 304 304 305 305 299 293 293 291 290 290 293 295 289 288 287 284 287 287 290 290 289 289 289 288 291 288 291 291 288 286 286 286 283 283 300 304 294 297 304 308 310 311
305 305 304 303 305 305 302 292 296 298 293 289 296 296 297 295 292 288 287 286 288 291 290 287 286 284 286 285 282 294 287 291 289 291 290 297 302 303 306 308 305 310 310 312
304 304 303 302 303 304 301 294 297 294 290 288 289 290 295 298 298 298 287 289 293 292 290 286 285 284 286 282 285 289 292 296 292 292 298 300 304 307 308 308 310 313 312 313
303 303 302 302 302 303 302 297 296 292 288 284 286 296 292 297 296 296 297 294 295 293 291 286 286 285 288 286 287 288 291 292 290 292 295 301 306 308 309 311 313 314 314 314
302 303 302 302 302 302 298 297 297 294 288 285 285 290 293 294 294 294 295 293 289 290 291 290 286 292 288 287 289 287 292 291 290 290 298 297 300 308 312 312 313 315 314 312
302 303 302 302 302 300 292 286 290 294 294 286 281 287 290 291 291 291 292 291 288 290 292 291 293 296 290 284 285 292 295 297 298 296 300 300 303 310 315 313 315 317 316 314
301 301 302 302 302 293 289 286 296 297 294 287 283 281 290 292 289 288 288 290 288 288 286 288 287 289 292 290 286 292 295 297 298 300 301 300 305 306 312 315 317 316 316 315
302 301 300 301 301 297 290 294 302 300 295 290 284 282 284 299 290 285 288 286 287 288 288 288 286 287 288 285 290 293 295 301 303 302 306 306 311 312 314 316 317 313 311 311
302 301 300 293 289 285 288 301 302 297 291 285 286 281 278 297 293 291 289 291 285 290 286 286 289 286 284 290 292 295 299 301 299 303 309 311 311 312 314 313 312 309 309 310
301 292 286 281 286 298 300 291 287 287 291 289 284 288 281 289 290 290 291 291 287 282 287 291 287 285 292 294 295 298 302 305 303 302 307 310 311 313 313 313 313 311 311 310
288 284 283 287 298 290 291 286 284 286 284 288 287 284 281 288 286 286 288 290 288 286 285 287 285 282 289 296 298 299 300 307 307 308 310 312 312 310 313 312 312 312 311 309
289 289 295 294 290 287 284 280 284 283 280 283 282 283 284 284 292 287 289 289 288 285 290 287 282 286 295 298 301 301 306 306 309 312 312 313 313 312 313 310 310 312 312 310
289 287 286 287 285 279 279 277 280 281 282 284 286 282 284 284 290 288 288 287 285 291 283 283 285 292 298 298 302 304 307 308 309 311 313 313 313 314 313 311 312 313 311 310
283 282 279 280 279 280 280 280 280 284 286 288 288 285 283 285 287 289 285 289 288 283 280 281 292 297 298 299 306 305 304 307 308 309 310 311 313 313 313 314 313 311 309 307
285 285 278 280 282 283 285 285 286 288 290 288 286 288 288 284 286 289 287 285 282 283 283 292 296 298 300 302 304 305 305 307 308 309 309 312 313 314 312 312 311 309 307 306
287 286 283 283 283 283 286 288 288 292 290 292 289 286 283 284 285 285 284 283 282 283 292 296 296 295 300 300 303 304 306 305 306 309 310 311 311 311 311 312 310 308 307 305
286 284 285 284 285 284 286 289 290 295 291 286 286 284 282 283 281 283 285 284 285 290 296 297 296 298 300 301 302 304 305 305 304 306 308 308 311 312 311 308 308 308 308 307

GFSNW_sfc_thetae_291.txt.gz
Theta_e
310 309 308 306 306 304 298 295 291 304 305 298 296 294 295 297 299 302 300 300 297 295 296 295 296 295 299 305 304 298 302 301 296 298 303 303 304 302 304 296 295 297 296 297
309 309 307 305 306 301 296 292 293 303 304 293 294 296 296 298 298 298 298 298 299 300 297 294 297 298 303 304 304 302 303 299 295 297 300 302 300 301 302 301 302 297 294 297
309 308 307 305 305 302 298 293 288 296 300 298 295 295 295 295 300 299 300 298 300 298 297 299 296 298 302 304 304 308 307 300 298 294 297 301 299 301 302 302 297 298 298 300
308 307 306 305 305 303 297 293 290 293 291 294 296 296 296 294 294 299 300 298 298 297 294 296 296 299 300 302 303 302 304 298 299 299 300 300 300 300 300 300 301 298 302 302
307 307 306 305 305 300 295 292 292 293 294 293 293 295 295 295 295 295 293 296 297 297 295 296 295 297 298 297 301 299 301 297 297 296 299 299 297 299 300 301 302 302 303 303
308 307 305 306 305 301 295 295 295 294 290 291 292 293 295 295 297 298 298 299 297 295 297 301 302 302 302 301 297 296 297 297 296 292 296 297 293 298 299 300 303 304 302 308
307 305 305 305 305 300 296 296 295 292 287 290 291 292 293 293 294 294 297 299 296 299 302 302 301 300 299 299 298 299 295 297 297 292 295 286 298 306 303 302 305 308 308 309
306 305 305 305 305 302 300 296 295 292 288 290 290 291 291 292 294 294 296 297 300 302 300 293 291 291 292 295 297 297 298 295 292 290 291 294 297 300 300 301 302 309 309 310
306 305 305 305 305 305 301 299 298 294 290 288 291 291 291 290 291 292 294 299 301 304 297 292 285 283 288 287 294 300 297 298 293 293 288 286 299 304 306 305 299 310 310 310
306 306 305 305 305 305 302 299 299 296 290 292 292 289 289 293 292 291 293 294 296 302 295 288 287 285 292 286 287 292 292 293 290 290 290 294 302 306 307 294 299 309 311 312
305 305 305 305 306 306 302 298 299 297 293 293 295 295 293 293 293 290 292 292 294 296 292 291 292 291 294 292 294 295 293 292 291 293 290 288 307 304 298 306 311 311 312 314
306 305 305 304 304 305 303 297 299 301 295 292 298 298 299 297 297 294 293 292 294 298 294 294 294 291 293 290 288 298 292 298 294 297 296 306 309 308 309 310 309 312 314 316
306 305 305 304 304 305 303 298 299 297 293 292 292 291 297 301 300 301 291 295 296 298 299 296 293 287 292 288 289 293 297 300 297 298 300 303 305 306 307 311 311 313 316 317
305 305 304 303 304 305 302 299 299 298 294 286 289 298 295 300 300 299 299 297 300 299 300 295 292 288 294 289 291 292 296 298 295 296 299 299 301 305 308 308 308 307 312 317
304 304 303 303 303 303 303 301 300 300 293 286 288 294 296 298 299 297 297 296 295 293 291 292 290 294 292 293 292 289 295 293 291 290 298 299 302 306 307 304 305 307 311 316
303 303 303 302 302 302 299 292 298 300 301 291 283 293 293 296 296 295 296 296 294 293 291 291 294 298 295 289 288 295 298 299 301 298 303 304 306 306 305 305 307 310 311 319
303 303 302 302 303 299 294 292 298 300 302 291 284 287 294 295 294 294 294 296 294 294 291 291 292 294 296 291 287 293 297 299 300 305 304 300 301 303 307 308 310 313 317 319
302 302 302 302 302 300 297 300 301 301 296 292 285 286 290 298 291 290 294 291 293 293 291 294 292 294 294 288 293 296 298 298 299 301 302 300 304 304 307 313 312 313 315 317
302 301 301 298 296 293 294 300 303 300 294 286 286 283 285 298 291 293 293 294 288 294 290 291 293 291 289 293 296 297 299 299 300 304 306 306 302 305 311 314 314 314 316 317
301 296 292 288 293 298 302 297 292 291 292 291 284 290 286 294 292 288 290 294 292 288 292 296 290 290 297 299 300 301 301 302 301 300 299 300 301 304 312 315 316 318 316 316
294 290 289 294 298 296 292 286 285 287 285 289 288 287 286 294 288 288 291 288 292 286 291 291 290 290 296 300 303 305 307 306 302 301 303 305 306 309 313 314 313 313 313 313
294 295 298 297 292 287 284 282 285 283 282 288 287 289 289 291 294 291 291 287 288 284 294 290 288 295 300 303 303 306 308 306 304 307 309 313 312 314 313 312 311 310 309 308
297 293 289 286 285 280 278 278 281 281 287 290 290 289 291 292 293 292 290 285 286 294 288 289 293 299 300 301 305 307 308 310 311 310 312 313 312 312 312 310 309 309 308 309
288 284 280 281 280 282 284 285 287 290 292 293 293 292 290 292 290 292 286 290 290 287 286 288 297 298 299 304 307 307 306 308 309 310 311 311 312 312 312 312 311 308 306 307
286 284 279 282 287 289 290 291 291 294 296 294 292 291 291 290 288 291 290 286 285 287 288 295 298 301 301 303 305 304 305 306 308 308 311 310 311 311 311 311 310 309 309 309
287 285 284 288 287 288 290 291 291 296 295 295 292 287 284 285 289 287 286 286 285 291 295 299 300 301 303 301 304 302 304 306 307 307 309 310 311 312 311 311 311 311 310 308
285 285 289 288 288 288 291 293 294 298 292 287 288 284 285 291 287 286 291 289 293 297 298 300 302 303 303 302 304 303 302 305 308 308 307 308 311 313 310 308 309 310 310 309